Hourly Weather Roundup
Issued by NWS Central Illinois

Home | Current Version | Previous Version | Text Only | Print | Product List | Glossary On
Versions: 1 2 3 4 5 6 7 8 9 10 11 12 13 14 15 16 17 18 19 20 21 22 23 24 25 26 27 28 29 30 31 32 33 34 35 36 37 38 39 40 41 42 43 44 45 46 47 48 49 50
550
NZUS43 KILX 221510
HWRILX

AREA WEATHER ROUNDUP
NATIONAL WEATHER SERVICE, LINCOLN IL
900 AM CST WED FEB 22 2017


CITY           SKY/WX    TMP DP  RH WIND       PRES   REMARKS
BLOOMINGTON    FOG       52  52 100 S9        29.83S VSB 1/8
CHAMPAIGN      FOG       52  51  97 S10       29.84F VSB 1/4
DECATUR        FOG       53  53 100 S9        29.84F VSB 1/2
EFFINGHAM      CLOUDY    54  54 100 SE3       29.89F FOG
FLORA          FOG       56  55  98 S6        29.90F VSB 3/4
GALESBURG      FOG       53  53 100 S14       29.79F VSB 1/2
JACKSONVILLE   FOG       51  51 100 SW10      29.84R VSB 1/4
LACON          FOG       53  53 100 SW5       29.80F VSB 1
LAWRENCEVILLE  FOG       55  55 100 S5        29.91S VSB 1/2
LITCHFIELD     FOG       52  52 100 S10       29.86S VSB 1/4
$$


CITY           SKY/WX    TMP DP  RH WIND       PRES   REMARKS
LINCOLN        FOG       52  52 100 S6        29.83S VSB<1/4
MACOMB         FOG       55  55 100 SW12      29.83F VSB 1
MATTOON        FOG       53  53 100 S9        29.86F VSB 1/2
MT CARMEL AP   FOG       54  53  97 CALM      29.90F VSB<1/4
OLNEY-NOBLE AP MOSUNNY   55  55 100 S5        29.90F FOG
PARIS          FOG       54  54 100 S8        29.87F VSB 3/4
PEORIA         FOG       53  53 100 SW8       29.82R VSB<1/4
PONTIAC        FOG       52  51  97 SW7       29.83R VSB 1/4
RANTOUL        FOG       54  54  99 S7        29.84F VSB 1/4
SPRINGFIELD    FOG       54  53  97 S5        29.83S VSB 3/4
TAYLORVILLE    PTSUNNY   54  54 100 S8        29.84F FOG
$$

...REGIONAL REPORTS...


CITY           SKY/WX    TMP DP  RH WIND       PRES   REMARKS
CHICAGO O`HARE CLOUDY    54  52  93 SW9       29.78F FOG
KANKAKEE       FOG       51  50  98 CALM      29.82F VSB 1/4
MOLINE         CLOUDY    48  48 100 S10       29.77R FOG
MOUNT STERLING CLOUDY    55  55 100 SW8       29.82S FOG
MOUNT VERNON   CLOUDY    55  55 100 CALM      29.89F FOG
PITTSFIELD     FOG       55  55 100 SW8       29.85S VSB 1/2
QUINCY         CLOUDY    55  55 100 SW13      29.81F FOG
ROCKFORD       FOG       54  53  97 S15       29.77F VSB 1
$$


CITY           SKY/WX    TMP DP  RH WIND       PRES   REMARKS
BURLINGTON     FOG       54  54 100 SW10      29.78F VSB 3/4
CEDAR RAPIDS   SUNNY     54  49  83 S17G24    29.68F
DES MOINES     MOSUNNY   57  33  40 SW13      29.67F
KIRKSVILLE     SUNNY     55  52  89 SW12      29.79F
OTTUMWA        SUNNY     55  49  80 S16       29.72F
ST LOUIS       CLOUDY    56  54  93 S8        29.85F FOG
$$


CITY           SKY/WX    TMP DP  RH WIND       PRES   REMARKS
TERRE HAUTE    FOG       55  54  96 S8        29.89F VSB 3/4
EVANSVILLE     PTSUNNY   59  55  87 SW3       29.92S FOG
INDIANAPOLIS   CLOUDY    56  54  93 SW9       29.89F FOG
LAFAYETTE      CLOUDY    53  53 100 SW7       29.86S FOG
MADISON        PTSUNNY   51  49  92 S14       29.68F FOG
MILWAUKEE      CLOUDY    54  51  90 SW15G25   29.73F
$$






USA.gov is the U.S. government's official web portal to all federal, state and local government web resources and services.